loading
|
Showing default

OPS 9347 (IDSCS 25), 3290

Orbit data source: Space-Track

OPS 9347 (IDSCS 25), 3290 is a payload satellite owned by SAMSO (US) that was launched on Thu, 13 Jun 1968 UTC via a TITAN IIIC launch vehicle from the Air Force Eastern Test Range (AFETR). Payloads include a variety of satellites, spacecraft, and rockets equipped with specific instruments for various scientific and technological missions. These include communications satellites like Starlink; space stations such as the ISS; scientific satellites like the Hubble; Earth observation satellites from companies like Planet Labs, Umbra, and HawkEye 360; GPS; miniature CubeSats for education and research; and military/defense satellites.

Next visibility unknown
Next conjunction unknown
Loading greatness...
OPS 9347 (IDSCS 25) details
Identifier
3290, 1968-050G
Orbit
Active
Last TLE update3 days ago
Origin
Flag of USSAMSO (US)
ManufacturerPhilco-Ford
MissionNon-operational Defense Communications
Bus & MotorIDCSP, Unknown motor
Mass45 kg wet, 45 kg dry
Launch date (UTC)
1968-06-13 (56 years ago)
Launch vehicle
TITAN IIIC
Launch site
Air Force Eastern Test Range (AFETR)
Object type
Payload
Rocket body
Debris
Shape & HBRPoly, 0.9 m
Radar Cross Section0.926 m², Medium (>0.1 m² and < 1m²)

Expand to show TLE details & history

TLE from 3 days ago
0 OPS 9347 (IDSCS 25)
1 03290U 68050G   24282.96455792 -.00000107  00000-0  00000-0 0  9997
2 03290   5.6667  59.3572 0061134 119.0469 238.6961  1.07035879 40539
Epoch: 2024-10-08T23:08Z
Definitive object data (Epoch: 2024-10-08T23:08:57.804Z)
Latitude-0.28718°
Longitude51.17293°
Altitude34,120.925 km
Speed3.132 km/s
True Right ascension03h 45m 56s
True Declination0° 17' 13"
Sunlit
Object was in daylight at TLE epoch
Predictive object data (real-time)
Latitude5.5618°
Longitude133.15801°
Altitude33,800.04 km
Speed3.157 km/s
Apparent Right ascension08h 54m 03s
Apparent Declination0° 14' 22"
Sunlit
Object is in daylight
Predictive observer data (real-time)
Local Sidereal Time17:54:39
Azimuth302.639° NW
Elevation-33.123°
Doppler factor1
Orbital elements
Apogee34,238.848 km
Perigee33,745.25 km
Semi-major axis40,370.186 km
Eccentricity0.0061134
Inclination5.6667°
RAAN59.3572°
Arg. of periapsis119.0469°
True anomaly238.09992°
Mean anomaly238.6961°
Eccentric anomaly238.39777°
Mean motion0.26758 °/min
BSTARUnknown
Period1345.4 mins
No data available

OPS 9347 (IDSCS 25) Visibility forecast

Observer location: 39.9160978°, -105.1181434

OPS 9347 (IDSCS 25) is not visible in the next 10 days
Span
Click to sort rows by Start time (UTC) header in descending order
Start Az.
Max El. time (UTC)
Max El. Az.
Max El.
End time (UTC)
End Az.